Tracking 29781 objects as of 15-Oct-2024
HD Live streaming from Space Station
objects crossing your sky now

DELTA 1 DEB

Track DELTA 1 DEB now!
10-day predictions


NORAD ID: 21682
Int'l Code: 1975-052JJ
Perigee: 1,106.2 km
Apogee: 2,483.9 km
Inclination: 99.4 °
Period: 122.4 minutes
Semi major axis: 8166 km
RCS: 0.089 m2 (small)
Launch date: June 12, 1975
Source: United States (US)
Launch site: AIR FORCE WESTERN TEST RANGE (AFWTR)

Note: This is SATELLITE DEBRIS
Your satellite tracking list
Your tracking list is empty




NASA's NSSDC Master Catalog

Two Line Element Set (TLE):
1 21682U 75052JJ  24288.64615470  .00005417  00000-0  34871-1 0  9996
2 21682  99.4166  57.5528 0843523 321.5760  44.5619 11.76479554423431
Source of the keplerian elements: AFSPC